Regional Weather Roundup
Issued by NWS

Home | Current Version | Previous Version | Text Only | Print | Product List | Glossary Off
Versions: 1 2 3 4 5 6 7 8 9 10 11 12 13 14 15 16 17 18 19 20 21 22 23 24 25 26 27 28 29 30 31 32 33 34 35 36 37 38 39 40 41 42 43 44 45 46 47 48 49 50

000
ASUS43 KMKX 311759
RWRWI

WISCONSIN REGIONAL WEATHER ROUNDUP
NATIONAL WEATHER SERVICE MILWAUKEE/SULLIVAN WI
1200 PM CST SAT JAN 31 2015

NOTE: "FAIR" INDICATES FEW OR NO CLOUDS BELOW 12,000 FEET WITH NO
SIGNIFICANT WEATHER AND/OR OBSTRUCTIONS TO VISIBILITY.

WIZ001-002-006>008-014>016-023>028-311900-
NORTHWEST WISCONSIN

CITY           SKY/WX    TMP DP  RH WIND       PRES   REMARKS
SUPERIOR ARPT  SUNNY     22   8  54 N9        30.28R WCI  12
ASHLAND        CLOUDY    21  12  68 N13       30.25R WCI   9
6HR MIN TEMP:  21; 6HR MAX TEMP:  23;

HAYWARD        CLOUDY    23  14  68 N8        30.20S WCI  14
6HR MIN TEMP:  21; 6HR MAX TEMP:  23;

SIREN          PTSUNNY   26  16  66 NE12      30.22F WCI  16
CUMBERLAND     CLOUDY    25  18  74 NE9       30.17F WCI  15
RICE LAKE      CLOUDY    26  18  72 N7        30.20F WCI  18
CHETEK         CLOUDY    27  19  73 N6        30.19F WCI  20
LADYSMITH      CLOUDY    26  19  73 N6        30.19S WCI  20
EAU CLAIRE     NOT AVBL
MENOMONIE      CLOUDY    28  20  72 N9        30.20S WCI  19
NEW RICHMOND   CLOUDY    27  20  76 NE10      30.21R WCI  17
OSCEOLA        CLOUDY    27  20  75 N7        30.25S WCI  20
$$

WIZ003>005-009-010-017-018-311900-
NORTH CENTRAL WISCONSIN

CITY           SKY/WX    TMP DP  RH WIND       PRES   REMARKS
MANITOWISH WTR FLURRIES  21  17  84 N9G16     30.14S WCI  10
ARBOR VITAE    CLOUDY    23  18  81 N10       30.13S WCI  12
WOODRUFF       CLOUDY    23  18  81 N10       30.13S WCI  12
RHINELANDER    CLOUDY    22  16  78 NW8       30.13S WCI  12
6HR MIN TEMP:  17; 6HR MAX TEMP:  22;

EAGLE RIVER    CLOUDY    22  16  77 NW13      30.12S WCI  10
LAND O LAKES   LGT SNOW  22  17  82 N8        30.13S WCI  13
PHILLIPS       CLOUDY    22  16  77 N9        30.15S WCI  12
TOMAHAWK       CLOUDY    23  17  78 NW5       30.15S WCI  17
MEDFORD        CLOUDY    24  18  77 N9        30.14F WCI  15
MERRILL        CLOUDY    25  19  76 N8        30.15S WCI  16
$$

WIZ029-030-035-036-043>047-311900-
CENTRAL WISCONSIN

CITY           SKY/WX    TMP DP  RH WIND       PRES   REMARKS
WAUSAU         CLOUDY    26  18  71 N6        30.14F WCI  19
6HR MIN TEMP:  19; 6HR MAX TEMP:  26;

MOSINEE        CLOUDY    25  19  80 N7        30.16S WCI  17
MARSHFIELD     CLOUDY    26  19  74 N8        30.15F WCI  18
6HR MIN TEMP:  20; 6HR MAX TEMP:  26;

STEVENS POINT  CLOUDY    24  16  71 N3        30.17S
WAUPACA        CLOUDY    29  18  63 NW5       30.18S WCI  24
WAUTOMA        NOT AVBL
WISC RAPIDS    CLOUDY    26  18  71 N6        30.19S WCI  19
6HR MIN TEMP:  21; 6HR MAX TEMP:  27;

CAMP DOUGLAS   NOT AVBL
$$

WIZ011>013-019>022-031-037>040-048>050-311900-
NORTHEAST WISCONSIN

CITY           SKY/WX    TMP DP  RH WIND       PRES   REMARKS
ANTIGO         CLOUDY    23  18  80 NW7       30.14R WCI  15
SHAWANO        CLOUDY    28  17  64 NW5       30.18S WCI  23
OCONTO         CLOUDY    26  16  66 CALM      30.17F
STURGEON BAY   CLOUDY    25  14  63 NW7       30.18F WCI  17
6HR MIN TEMP:  21; 6HR MAX TEMP:  25;

GREEN BAY      CLOUDY    27  18  69 NW6       30.17F WCI  20
6HR MIN TEMP:  21; 6HR MAX TEMP:  27;

MANITOWOC      NOT AVBL
APPLETON       CLOUDY    27  18  69 NW7       30.17S WCI  19
CLINTONVILLE   CLOUDY    27  18  69 N6        30.16F WCI  20
OSHKOSH        CLOUDY    29  19  66 N7        30.17S WCI  22
6HR MIN TEMP:  22; 6HR MAX TEMP:  29;

$$

WIZ032>034-041-042-053>061-311900-
SOUTHWEST WISCONSIN

CITY           SKY/WX    TMP DP  RH WIND       PRES   REMARKS
LA CROSSE      CLOUDY    30  20  66 NW3       30.19F
6HR MIN TEMP:  24; 6HR MAX TEMP:  30;

SPARTA         CLOUDY    29  21  71 N3        30.19F
VIROQUA        CLOUDY    29  22  76 CALM      30.16S
BOSCOBEL       CLOUDY    32  20  61 CALM      30.18F
6HR MIN TEMP:  13; 6HR MAX TEMP:  32;

PRAIRIE DU CHI CLOUDY    31  20  64 CALM      30.19F
PLATTEVILLE    CLOUDY    31  24  74 SW7       30.17F WCI  24
$$

WIZ056-057-062-063-064-067-068-311900-
SOUTH CENTRAL WISCONSIN

CITY           SKY/WX    TMP DP  RH WIND       PRES   REMARKS
REEDSBURG      CLOUDY    30  20  68 CALM      30.17F
BARABOO/DELLS  CLOUDY    30  20  66 N3        30.16F
LONE ROCK      NOT AVBL
MINERAL POINT  CLOUDY    32  23  69 W6        30.15F WCI  26
MADISON        CLOUDY    33  20  58 NW7       30.17S WCI  27
6HR MIN TEMP:  22; 6HR MAX TEMP:  33;

MIDDLETON      PTSUNNY   33  21  59 W3        30.17F
WATERTOWN      MOSUNNY   31  20  64 W6        30.17S WCI  25
MONROE         CLOUDY    32  25  74 W7        30.15F WCI  26
JANESVILLE     SUNNY     36  21  55 W7        30.17F WCI  30
$$

WIZ051-052-058>065-066-070>072-311900-
SOUTHEAST WISCONSIN

CITY           SKY/WX    TMP DP  RH WIND       PRES   REMARKS
MILWAUKEE      PTSUNNY   34  19  54 W9        30.17S WCI  27
6HR MIN TEMP:  23; 6HR MAX TEMP:  34;

WAUKESHA       NOT AVBL
MILWAUKEE/TIMM SUNNY     34  18  51 NW8       30.18S WCI  27
RACINE         MOSUNNY   34  20  56 W7        30.19S WCI  28
6HR MIN TEMP:  23; 6HR MAX TEMP:  34;

BURLINGTON     MOSUNNY   32  21  64 W7        30.17F WCI  25
KENOSHA        MOSUNNY   35  22  58 W12       30.17F WCI  27
6HR MIN TEMP:  23; 6HR MAX TEMP:  35;

FOND DU LAC    CLOUDY    29  18  63 N5        30.17F WCI  24
6HR MIN TEMP:  22; 6HR MAX TEMP:  30;

SHEBOYGAN      CLOUDY    30  19  63 NW10      30.16F WCI  21
6HR MIN TEMP:  24; 6HR MAX TEMP:  30;

WEST BEND      CLOUDY    30  19  64 NW8       30.17S WCI  23
JUNEAU         CLOUDY    28  19  69 N5        30.17F WCI  23
$$

LSZ147-162-311900-
LAKE SUPERIOR

STATION/POSITION TIME  TEMP    WIND        PRES    WAVE
                       AIR SEA DIR/SP/G            HT/PER
                 (UTC) (F)     (DEG/KT/KT) (MB)    (FT/S)
DEVILS ISLAND    1700   18     350/ 13/ 15 1026.2R
PORT WING        1740   21      10/ 10/ 13 1025.1S
SAXON HARBOR     1700   22     360/ 15/ 18 1024.0R
$$

LMZ867-665-643>646-311900-
LAKE MICHIGAN

STATION/POSITION TIME  TEMP    WIND        PRES    WAVE
                       AIR SEA DIR/SP/G            HT/PER
                 (UTC) (F)     (DEG/KT/KT) (MB)    (FT/S)
NORTHPORT PIER   1700   25     300/  7/  9 1021.7S
SISTER BAY       1743   31        CALM       N/A
KEWAUNEE LAKESHO 1700   26     300/  6/ 10 1021.0R
SHEBOYGAN LAKESH 1700   29     310/ 12/ 14 1023.0R
PORT WASHINGTON  1700   32     290/  9/ 12 1022.4S
MILWAUKEE LAKESH 1700   32     280/  7/ 10   N/A
KENOSHA   LAKESH 1700   32     280/ 12/ 17 1022.0F
$$

TC  - TEMPERATURE IN CELSIUS
VSB - VISIBILITY IN STATUTE MILES
WCI - WIND CHILL INDEX
HX  - HEAT INDEX




USA.gov is the U.S. government's official web portal to all federal, state and local government web resources and services.